Back to catalog

COSMOS 1320

AliveMilitaryLEO
NORAD 12975·PAYLOAD·🇷🇺 Russia

Launched Nov 28, 1981 from Plesetsk Cosmodrome

Loading…

Next Passes (next 24 hours)

TLE

FreshSource: Space-Track

Epoch: Sep 14, 2026, 14:47 UTC

1 12975U 81116A   26257.61664742 -.00000007  00000-0  64828-4 0  9999
2 12975  73.9827 305.7589 0096231 148.1418 286.8738 12.28046251  8154

Track COSMOS 1320 in real time with AllMySat

Download on the App Store